TimeCET,TemperatureF,Dew PointF,Humidity,Sea Level PressureIn,VisibilityMPH,Wind Direction,Wind SpeedMPH,Gust SpeedMPH,PrecipitationIn,Events,Conditions,WindDirDegrees,DateUTC
12:55 AM,24.8,15.8,69,29.89,6.2,NNE,17.3,-,N/A,,Scattered Clouds,20,2013-03-01 23:55:00
1:00 AM,25,16,58,,19,NNE,17.3,,,,Partly Cloudy,20,2013-03-02 00:00:00
1:55 AM,24.8,15.8,69,29.86,6.2,NNE,18.4,-,N/A,,Scattered Clouds,20,2013-03-02 00:55:00
2:55 AM,24.8,15.8,69,29.86,6.2,NE,20.7,-,N/A,,Mostly Cloudy,40,2013-03-02 01:55:00
3:55 AM,23.0,14.0,68,29.83,6.2,NNE,25.3,-,N/A,,Mostly Cloudy,30,2013-03-02 02:55:00
4:55 AM,23.0,10.4,59,29.83,6.2,NNE,29.9,-,N/A,,Scattered Clouds,30,2013-03-02 03:55:00
5:55 AM,23.0,15.8,74,29.83,6.2,NNE,32.2,-,N/A,,Mostly Cloudy,20,2013-03-02 04:55:00
6:55 AM,21.2,15.8,80,29.80,-9999.0,East,48.3,-,N/A,,Clear,100,2013-03-02 05:55:00
7:00 AM,22,16,68,,7,East,48.3,,,,Partly Cloudy,100,2013-03-02 06:00:00
7:55 AM,21.2,17.6,86,29.80,0.2,East,43.7,-,N/A,Fog,Light Freezing Fog,100,2013-03-02 06:55:00
8:55 AM,21.2,19.4,93,29.83,0.0,East,43.7,-,N/A,Fog,Light Freezing Fog,100,2013-03-02 07:55:00
9:55 AM,23.0,19.4,86,29.86,0.0,East,43.7,-,N/A,Fog,Light Freezing Fog,100,2013-03-02 08:55:00
10:55 AM,23.0,14.0,68,29.86,-9999.0,ESE,43.7,-,N/A,,Clear,110,2013-03-02 09:55:00
11:55 AM,23.0,14.0,68,29.89,-9999.0,ESE,34.5,-,N/A,,Clear,110,2013-03-02 10:55:00
12:55 PM,23.0,14.0,68,29.89,-9999.0,ESE,32.2,-,N/A,,Clear,110,2013-03-02 11:55:00
1:00 PM,23,14,58,,12,ESE,32.2,,,,Partly Cloudy,110,2013-03-02 12:00:00
1:55 PM,23.0,15.8,74,29.89,-9999.0,NE,29.9,-,N/A,,Clear,50,2013-03-02 12:55:00
2:55 PM,23.0,12.2,63,29.86,-9999.0,NNE,43.7,-,N/A,,Clear,30,2013-03-02 13:55:00
3:55 PM,23.0,10.4,59,29.89,-9999.0,NNE,17.3,-,N/A,,Clear,30,2013-03-02 14:55:00
4:55 PM,23.0,12.2,63,29.89,-9999.0,NNE,39.1,-,N/A,,Clear,30,2013-03-02 15:55:00
5:55 PM,23.0,10.4,59,29.89,-9999.0,NNE,36.8,-,N/A,,Clear,30,2013-03-02 16:55:00
6:55 PM,23.0,-5.8,28,29.92,-9999.0,NNE,41.4,-,N/A,,Clear,30,2013-03-02 17:55:00
7:00 PM,23,-6,14,,19,NNE,41.4,,,,Partly Cloudy,30,2013-03-02 18:00:00
7:55 PM,23.0,-7.6,26,29.92,-9999.0,NNE,39.1,-,N/A,,Clear,30,2013-03-02 18:55:00
8:55 PM,23.0,-11.2,22,29.95,-9999.0,NNE,36.8,-,N/A,,Clear,30,2013-03-02 19:55:00
9:55 PM,24.8,-13.0,19,29.95,-9999.0,NNE,40.3,-,N/A,,Clear,30,2013-03-02 20:55:00
11:55 PM,26.6,-14.8,16,29.98,-9999.0,NNE,25.3,-,N/A,,Clear,30,2013-03-02 22:55:00